| time (UTC) | temp F | wind direction | speed knots | gust knots | rain 1hr in | rain 24hr in | rain mn in | humidity % | barometer mb |
| 20260903091801 | 61 | 108 | 0.9 | 4.3 | 0.02 | 0.10 | 0.10 | 52 | 1016.1 |
| 20260903090801 | 61 | 184 | 1.7 | 4.3 | 0.02 | 0.10 | 0.10 | 53 | 1016.2 |
| 20260903090254 | 60 | 200 | 0.9 | 3.5 | 0.01 | 0.09 | 0.09 | 53 | 1016.1 |
| 20260903084801 | 60 | 217 | 0.9 | 2.6 | 0.01 | 0.09 | 0.09 | 53 | 1015.9 |
| 20260903084243 | 60 | 192 | 0.9 | 2.6 | 0.05 | 0.09 | 0.08 | 53 | 1015.8 |
| 20260903083236 | 60 | 123 | 0.0 | 2.6 | 0.06 | 0.08 | 0.08 | 53 | 1015.9 |
| 20260903081801 | 60 | 132 | 0.0 | 7.0 | 0.06 | 0.08 | 0.08 | 54 | 1016.0 |
| 20260903080803 | 60 | 173 | 1.7 | 7.0 | 0.07 | 0.08 | 0.08 | 54 | 1016.1 |
| 20260903075758 | 60 | 187 | 0.9 | 6.1 | 0.07 | 0.08 | 0.08 | 54 | 1016.2 |
| 20260903074757 | 60 | 124 | 1.7 | 6.1 | 0.07 | 0.08 | 0.07 | 54 | 1016.5 |
| 20260903073756 | 60 | 173 | 1.7 | 4.3 | 0.04 | 0.04 | 0.04 | 54 | 1016.9 |
| 20260903072755 | 60 | 195 | 0.9 | 5.2 | 0.02 | 0.02 | 0.02 | 55 | 1017.0 |
| 20260903071755 | 60 | 170 | 1.7 | 5.2 | 0.02 | 0.02 | 0.02 | 55 | 1017.0 |
| 20260903070755 | 60 | 190 | 1.7 | 4.3 | 0.01 | 0.01 | 0.01 | 55 | 1017.0 |
| 20260903065755 | 61 | 176 | 0.9 | 3.5 | 0.01 | 0.01 | 0.01 | 55 | 1017.1 |
| 20260903064755 | 61 | 203 | 0.9 | 4.3 | 0.01 | 0.01 | 0.01 | 56 | 1017.2 |
| 20260903063752 | 61 | 140 | 0.9 | 4.3 | 0.00 | 0.00 | 0.00 | 56 | 1017.2 |
| 20260903062750 | 61 | 184 | 0.9 | 3.5 | 0.00 | 0.00 | 0.00 | 57 | 1017.4 |
| 20260903061747 | 60 | 213 | 1.7 | 3.5 | 0.00 | 0.00 | 0.00 | 57 | 1017.6 |
| 20260903061223 | 60 | 192 | 0.9 | 3.5 | 0.00 | 0.00 | 0.00 | 58 | 1017.7 |
| 20260903055744 | 60 | 217 | 0.9 | 3.5 | 0.00 | 0.00 | 0.00 | 58 | 1017.8 |
| 20260903054740 | 60 | 163 | 0.9 | 3.5 | 0.00 | 0.00 | 0.00 | 59 | 1017.9 |
| 20260903053738 | 60 | 205 | 1.7 | 2.6 | 0.00 | 0.00 | 0.00 | 60 | 1018.0 |
| 20260903052737 | 60 | 201 | 0.9 | 4.3 | 0.00 | 0.00 | 0.00 | 60 | 1018.1 |
| 20260903052205 | 60 | 178 | 1.7 | 4.3 | 0.00 | 0.00 | 0.00 | 61 | 1018.1 |
| 20260903050732 | 60 | 161 | 0.9 | 3.5 | 0.00 | 0.00 | 0.00 | 61 | 1018.0 |
| 20260903045731 | 60 | 104 | 0.9 | 4.3 | 0.00 | 0.00 | 0.00 | 61 | 1018.0 |
| 20260903044732 | 60 | 103 | 1.7 | 4.3 | 0.00 | 0.00 | 0.00 | 62 | 1018.2 |
| 20260903043732 | 60 | 169 | 0.0 | 1.7 | 0.00 | 0.00 | 0.00 | 62 | 1018.7 |
| 20260903043331 | 60 | 182 | 0.9 | 3.5 | 0.00 | 0.00 | 0.00 | 62 | 1018.9 |
| 20260903040731 | 60 | 228 | 1.7 | 4.3 | 0.00 | 0.00 | 0.00 | 63 | 1019.0 |
| 20260903035729 | 60 | 280 | 1.7 | 3.5 | 0.00 | 0.00 | 0.00 | 64 | 1018.9 |
| 20260903035204 | 60 | 121 | 0.9 | 3.5 | 0.00 | 0.00 | 0.00 | 64 | 1018.8 |
| 20260903033729 | 60 | 210 | 0.9 | 3.5 | 0.00 | 0.00 | 0.00 | 65 | 1018.8 |
| 20260903032729 | 60 | 211 | 0.9 | 5.2 | 0.00 | 0.00 | 0.00 | 65 | 1019.0 |
| 20260903032205 | 60 | 198 | 0.9 | 5.2 | 0.00 | 0.00 | 0.00 | 66 | 1019.2 |
| 20260903030729 | 60 | 200 | 0.9 | 5.2 | 0.00 | 0.00 | 0.00 | 66 | 1019.2 |
| 20260903025729 | 60 | 121 | 0.9 | 4.3 | 0.00 | 0.00 | 0.00 | 67 | 1019.2 |
| 20260903025203 | 60 | 203 | 0.9 | 4.3 | 0.00 | 0.00 | 0.00 | 67 | 1019.4 |
| 20260903024641 | 60 | 198 | 0.9 | 5.2 | 0.00 | 0.00 | 0.00 | 68 | 1019.6 |
| 20260903022728 | 60 | 164 | 0.9 | 5.2 | 0.00 | 0.00 | 0.00 | 69 | 1019.6 |
| 20260903021729 | 60 | 168 | 1.7 | 4.3 | 0.00 | 0.00 | 0.00 | 69 | 1019.7 |
| 20260903020729 | 60 | 175 | 0.9 | 4.3 | 0.00 | 0.00 | 0.00 | 70 | 1019.7 |
| 20260903020210 | 60 | 101 | 1.7 | 5.2 | 0.00 | 0.00 | 0.00 | 71 | 1019.8 |
| 20260903014730 | 60 | 61 | 1.7 | 5.2 | 0.00 | 0.00 | 0.00 | 71 | 1019.5 |
| 20260903013729 | 60 | 236 | 1.7 | 5.2 | 0.00 | 0.00 | 0.00 | 72 | 1019.5 |
| 20260903012729 | 61 | 150 | 1.7 | 6.1 | 0.00 | 0.00 | 0.00 | 73 | 1019.5 |
| 20260903011729 | 61 | 109 | 1.7 | 6.1 | 0.00 | 0.00 | 0.00 | 74 | 1019.3 |
| 20260903011645 | 62 | 179 | 0.9 | 4.3 | 0.00 | 0.00 | 0.00 | 75 | 1019.4 |
| 20260903005728 | 62 | 133 | 1.7 | 7.8 | 0.00 | 0.00 | 0.00 | 75 | 1019.1 |
| 20260903004730 | 63 | 136 | 2.6 | 7.8 | 0.00 | 0.00 | 0.00 | 76 | 1019.2 |
| 20260903003729 | 63 | 126 | 2.6 | 6.1 | 0.00 | 0.00 | 0.00 | 76 | 1019.2 |
| 20260903003203 | 64 | 138 | 1.7 | 5.2 | 0.00 | 0.00 | 0.00 | 75 | 1019.3 |
| 20260903001729 | 64 | 194 | 2.6 | 7.0 | 0.00 | 0.00 | 0.00 | 75 | 1019.5 |
| 20260903001212 | 64 | 184 | 1.7 | 6.1 | 0.00 | 0.00 | 0.00 | 75 | 1019.6 |
| 20260902235729 | 64 | 163 | 2.6 | 6.1 | 0.00 | 0.00 | 0.00 | 75 | 1019.4 |
| 20260902234728 | 65 | 5 | 1.7 | 6.1 | 0.00 | 0.00 | 0.00 | 74 | 1019.6 |
| 20260902233728 | 65 | 135 | 0.9 | 7.0 | 0.00 | 0.00 | 0.00 | 74 | 1019.6 |
| 20260902232728 | 65 | 213 | 1.7 | 7.0 | 0.00 | 0.00 | 0.00 | 74 | 1019.7 |
| 20260902231727 | 65 | 216 | 1.7 | 6.1 | 0.00 | 0.00 | 0.00 | 73 | 1019.8 |
| 20260902230728 | 66 | 199 | 1.7 | 6.1 | 0.00 | 0.00 | 0.00 | 73 | 1019.7 |
| 20260902225728 | 66 | 157 | 2.6 | 6.1 | 0.00 | 0.00 | 0.00 | 72 | 1019.7 |
| 20260902224729 | 67 | 188 | 1.7 | 5.2 | 0.00 | 0.00 | 0.00 | 72 | 1020.0 |
| 20260902223728 | 67 | 165 | 1.7 | 5.2 | 0.00 | 0.00 | 0.00 | 71 | 1020.0 |
| 20260902222728 | 67 | 198 | 2.6 | 6.1 | 0.00 | 0.00 | 0.00 | 71 | 1020.1 |
| 20260902221722 | 67 | 155 | 2.6 | 6.1 | 0.00 | 0.00 | 0.00 | 70 | 1020.2 |
| 20260902220722 | 68 | 171 | 1.7 | 5.2 | 0.00 | 0.00 | 0.00 | 70 | 1020.1 |
| 20260902215722 | 68 | 145 | 2.6 | 7.0 | 0.00 | 0.00 | 0.00 | 69 | 1019.9 |
| 20260902214722 | 68 | 159 | 2.6 | 7.0 | 0.00 | 0.00 | 0.00 | 69 | 1020.0 |
| 20260902213722 | 69 | 99 | 1.7 | 5.2 | 0.00 | 0.00 | 0.00 | 69 | 1020.1 |
| 20260902212722 | 69 | 169 | 1.7 | 6.1 | 0.00 | 0.00 | 0.00 | 69 | 1020.2 |
| 20260902211722 | 69 | 106 | 2.6 | 7.0 | 0.00 | 0.00 | 0.00 | 68 | 1020.1 |
| 20260902210723 | 69 | 211 | 2.6 | 7.0 | 0.00 | 0.00 | 0.00 | 68 | 1020.4 |
| 20260902205722 | 69 | 100 | 2.6 | 7.0 | 0.00 | 0.00 | 0.00 | 69 | 1020.4 |
| 20260902204721 | 69 | 144 | 2.6 | 6.1 | 0.00 | 0.00 | 0.00 | 68 | 1020.4 |
| 20260902203720 | 69 | 107 | 3.5 | 7.8 | 0.00 | 0.00 | 0.00 | 69 | 1020.4 |
| 20260902202720 | 70 | 78 | 3.5 | 7.8 | 0.00 | 0.00 | 0.00 | 68 | 1020.3 |
| 20260902201720 | 70 | 112 | 2.6 | 7.0 | 0.00 | 0.00 | 0.00 | 67 | 1020.4 |
| 20260902200720 | 70 | 206 | 2.6 | 7.8 | 0.00 | 0.00 | 0.00 | 67 | 1020.5 |
| 20260902195859 | 70 | 145 | 2.6 | 7.8 | 0.00 | 0.00 | 0.00 | 66 | 1020.7 |
| 20260902194154 | 70 | 229 | 2.6 | 5.2 | 0.00 | 0.00 | 0.00 | 66 | 1020.8 |
| 20260902192718 | 70 | 103 | 1.7 | 6.1 | 0.00 | 0.00 | 0.00 | 66 | 1020.9 |
| 20260902191718 | 71 | 121 | 1.7 | 6.1 | 0.00 | 0.00 | 0.00 | 63 | 1020.9 |
| 20260902190718 | 71 | 188 | 1.7 | 4.3 | 0.00 | 0.00 | 0.00 | 62 | 1021.0 |
| 20260902185718 | 71 | 147 | 1.7 | 5.2 | 0.00 | 0.00 | 0.00 | 64 | 1021.1 |
| 20260902184718 | 71 | 125 | 2.6 | 6.1 | 0.00 | 0.00 | 0.00 | 61 | 1021.0 |
| 20260902183718 | 71 | 190 | 1.7 | 5.2 | 0.00 | 0.00 | 0.00 | 62 | 1020.9 |
| 20260902182718 | 71 | 103 | 1.7 | 5.2 | 0.00 | 0.00 | 0.00 | 59 | 1020.9 |
| 20260902181718 | 72 | 138 | 1.7 | 5.2 | 0.00 | 0.00 | 0.00 | 61 | 1020.8 |
| 20260902180718 | 72 | 93 | 0.9 | 5.2 | 0.00 | 0.00 | 0.00 | 62 | 1020.8 |
| 20260902180145 | 72 | 159 | 1.7 | 6.1 | 0.00 | 0.00 | 0.00 | 60 | 1020.8 |
| 20260902175150 | 72 | 52 | 1.7 | 6.1 | 0.00 | 0.00 | 0.00 | 62 | 1021.0 |
| 20260902173712 | 72 | 182 | 2.6 | 6.1 | 0.00 | 0.00 | 0.00 | 57 | 1021.0 |
| 20260902172711 | 73 | 199 | 1.7 | 5.2 | 0.00 | 0.00 | 0.00 | 59 | 1020.9 |
| 20260902171712 | 73 | 107 | 1.7 | 5.2 | 0.00 | 0.00 | 0.00 | 58 | 1020.9 |
| 20260902171151 | 73 | 54 | 2.6 | 5.2 | 0.00 | 0.00 | 0.00 | 54 | 1021.2 |
| 20260902170629 | 72 | 111 | 3.5 | 6.1 | 0.00 | 0.00 | 0.00 | 56 | 1021.4 |
| 20260902164712 | 73 | 127 | 4.3 | 7.0 | 0.00 | 0.00 | 0.00 | 56 | 1021.4 |
| 20260902163712 | 73 | 242 | 2.6 | 7.0 | 0.00 | 0.00 | 0.00 | 58 | 1021.5 |
| 20260902162707 | 72 | 105 | 3.5 | 5.2 | 0.00 | 0.00 | 0.00 | 62 | 1021.5 |
| 20260902161706 | 71 | 98 | 2.6 | 8.7 | 0.00 | 0.00 | 0.00 | 64 | 1021.6 |
| 20260902160706 | 71 | 76 | 4.3 | 8.7 | 0.00 | 0.00 | 0.00 | 62 | 1021.8 |
| 20260902155706 | 71 | 125 | 2.6 | 7.8 | 0.00 | 0.00 | 0.00 | 60 | 1021.9 |
| 20260902154706 | 71 | 69 | 3.5 | 7.8 | 0.00 | 0.00 | 0.00 | 61 | 1021.8 |
| 20260902154152 | 71 | 139 | 4.3 | 9.6 | 0.00 | 0.00 | 0.00 | 62 | 1021.9 |
| 20260902153149 | 71 | 80 | 3.5 | 9.6 | 0.00 | 0.00 | 0.00 | 64 | 1021.9 |
| 20260902151706 | 71 | 63 | 2.6 | 9.6 | 0.00 | 0.00 | 0.00 | 65 | 1021.9 |
| 20260902150706 | 70 | 70 | 2.6 | 8.7 | 0.00 | 0.00 | 0.00 | 68 | 1022.0 |
| 20260902145704 | 70 | 69 | 2.6 | 6.1 | 0.00 | 0.00 | 0.00 | 68 | 1022.0 |
| 20260902144704 | 69 | 217 | 3.5 | 7.0 | 0.00 | 0.00 | 0.00 | 68 | 1022.0 |
| 20260902143702 | 70 | 134 | 2.6 | 6.1 | 0.00 | 0.00 | 0.00 | 70 | 1022.0 |
| 20260902143135 | 69 | 101 | 1.7 | 6.1 | 0.00 | 0.00 | 0.00 | 72 | 1022.0 |
| 20260902141702 | 69 | 175 | 1.7 | 7.0 | 0.00 | 0.00 | 0.00 | 72 | 1022.1 |
| 20260902140701 | 68 | 87 | 0.9 | 7.0 | 0.00 | 0.00 | 0.00 | 73 | 1022.0 |
| 20260902135701 | 67 | 41 | 1.7 | 6.1 | 0.00 | 0.00 | 0.00 | 74 | 1022.0 |
| 20260902134701 | 67 | 35 | 1.7 | 6.1 | 0.00 | 0.00 | 0.00 | 73 | 1022.1 |
| 20260902133701 | 65 | 86 | 1.7 | 7.0 | 0.00 | 0.00 | 0.00 | 73 | 1022.2 |
| 20260902132833 | 65 | 80 | 1.7 | 7.0 | 0.00 | 0.00 | 0.00 | 69 | 1021.9 |
| 20260902130700 | 65 | 108 | 1.7 | 5.2 | 0.00 | 0.00 | 0.00 | 55 | 1021.9 |
| 20260902125701 | 64 | 92 | 1.7 | 3.5 | 0.00 | 0.00 | 0.00 | 50 | 1021.9 |
| 20260902124700 | 62 | 285 | 0.9 | 2.6 | 0.00 | 0.00 | 0.00 | 50 | 1022.0 |
| 20260902123700 | 62 | 114 | 0.0 | 0.0 | 0.00 | 0.00 | 0.00 | 50 | 1022.0 |
| 20260902122701 | 61 | 69 | 0.0 | 5.2 | 0.00 | 0.00 | 0.00 | 50 | 1022.0 |
| 20260902121701 | 61 | 107 | 1.7 | 5.2 | 0.00 | 0.00 | 0.00 | 51 | 1022.0 |
| 20260902120701 | 61 | 67 | 0.9 | 2.6 | 0.00 | 0.00 | 0.00 | 51 | 1022.2 |
| 20260902115701 | 60 | 44 | 0.0 | 1.7 | 0.00 | 0.00 | 0.00 | 51 | 1022.2 |
| 20260902114701 | 60 | 44 | 0.0 | 1.7 | 0.00 | 0.00 | 0.00 | 51 | 1022.1 |
| 20260902113701 | 60 | 42 | 0.0 | 1.7 | 0.00 | 0.00 | 0.00 | 51 | 1022.1 |
| 20260902112702 | 60 | 27 | 0.0 | 1.7 | 0.00 | 0.00 | 0.00 | 51 | 1022.2 |
| 20260902111701 | 60 | 77 | 0.9 | 2.6 | 0.00 | 0.00 | 0.00 | 51 | 1022.0 |
| 20260902110701 | 60 | 67 | 0.0 | 1.7 | 0.00 | 0.00 | 0.00 | 52 | 1021.8 |
| 20260902105701 | 60 | 67 | 0.0 | 0.9 | 0.00 | 0.00 | 0.00 | 52 | 1021.7 |
| 20260902104701 | 60 | 67 | 0.0 | 1.7 | 0.00 | 0.00 | 0.00 | 52 | 1021.5 |
| 20260902103703 | 60 | 56 | 0.0 | 1.7 | 0.00 | 0.00 | 0.00 | 52 | 1021.5 |
| 20260902102701 | 60 | 65 | 0.0 | 1.7 | 0.00 | 0.00 | 0.00 | 52 | 1021.6 |
| 20260902101701 | 60 | 65 | 0.0 | 3.5 | 0.00 | 0.00 | 0.00 | 52 | 1021.4 |
| 20260902100700 | 60 | 65 | 1.7 | 3.5 | 0.00 | 0.00 | 0.00 | 52 | 1021.4 |
| 20260902095701 | 60 | 39 | 1.7 | 4.3 | 0.00 | 0.00 | 0.00 | 52 | 1021.5 |
| 20260902094701 | 60 | 58 | 0.9 | 2.6 | 0.00 | 0.00 | 0.00 | 52 | 1021.7 |
| 20260902094616 | 60 | 47 | 0.9 | 3.5 | 0.00 | 0.00 | 0.00 | 52 | 1021.5 |
| 20260902092701 | 60 | 67 | 0.9 | 1.7 | 0.00 | 0.00 | 0.00 | 52 | 1021.6 |